[[{"header":{"parameterUnit":"m.s-1","parameterCategory":1,"la1":30.2992,"la2":30.254,"lo1":-89.0895,"lo2":-89.0443,"dy":0.0025,"dx":0.0025,"nx":19,"ny":19,"refTime":"2026-04-21T09:00:00:Z","depth":0,"parameterNumber":2,"parameterNumberName":"U-component_of_WINDS"},"data":[0,0,0,-4.4926,-4.4928,-4.4998,-4.4998,-4.5123,-4.5124,0,0,0,0,0,0,0,0,0,0,0,-4.4927,-4.4929,-4.4925,-4.4928,-4.4998,-4.4998,-4.5123,-4.5124,0,0,0,0,0,0,0,0,0,0,0,-4.4926,-4.4928,-4.493,-4.4928,-4.4998,-4.4998,-4.5122,-4.5057,0,0,0,0,0,0,0,0,0,0,-4.4982,-4.5006,-4.4928,-4.493,-4.4929,-4.4998,-4.4998,-4.5053,-4.5061,-4.5106,0,-4.5154,0,-4.5142,-4.5135,-4.5136,0,0,0,-4.4911,-4.4999,-4.4998,-4.4931,-4.493,-4.4998,-4.4962,-4.5057,-4.5066,-4.5117,-4.5156,-4.5159,-4.5144,-4.5136,-4.5137,-4.5461,-4.5463,0,0,-4.4907,-4.4951,-4.4992,-4.5005,-4.4998,-4.496,-4.4964,-4.5062,-4.5106,-4.5156,-4.5162,-4.5146,-4.5137,-4.5138,-4.5459,-4.5462,0,0,0,-4.4907,-4.495,-4.4945,-4.5001,-4.5011,-4.4962,-4.4967,-4.5102,-4.5097,-4.5163,-4.5147,-4.5138,-4.514,-4.5456,-4.546,-4.5618,0,0,0,-4.4904,-4.495,-4.4944,-4.4972,-4.501,-4.5058,-4.5006,-4.509,-4.5099,-4.5147,-4.5138,-4.5142,-4.5454,-4.5458,-4.5608,-4.5685,0,0,0,-4.4915,-4.495,-4.4969,-4.4975,-4.5007,-4.5055,-4.5055,-4.5091,-4.5091,-4.5136,-4.5142,-4.5452,-4.5457,-4.5599,-4.567,-4.5783,0,0,0,-4.4939,-4.5108,-4.4972,-4.5154,-4.5007,-4.5153,-4.5054,-4.516,-4.5218,-4.5139,-4.5454,-4.5459,-4.5596,-4.5661,-4.5773,-4.5885,-4.5936,0,0,-4.5177,-4.5138,-4.5242,-4.5122,-4.5305,-4.5139,-4.5343,-4.5353,-4.5316,-4.5414,-4.5422,-4.5611,-4.5669,-4.5781,-4.6208,-4.6248,0,0,0,-4.5332,-4.5407,-4.5446,-4.5503,-4.5516,-4.5532,-4.5506,-4.5509,-4.5591,-4.5376,-4.5681,-4.5714,-4.5778,-4.5829,-4.5864,-4.5915,-4.5485,-4.5485,-4.5484,-4.5732,-4.5676,-4.5844,-4.5798,-4.5854,-4.5826,-4.5866,-4.5866,-4.5792,-4.5866,-4.5894,-4.616,-4.6222,-4.6248,-4.6302,-4.5949,-4.595,-4.5951,-4.5951,-4.6074,-4.6171,-4.6071,-4.6198,-4.6138,-4.6243,-4.6222,-4.6167,-4.6255,-4.6134,-4.6187,-4.6059,-4.6294,-4.6339,-4.5962,-4.596,-4.5959,-4.5958,-4.5957,-4.6329,-4.6365,-4.6368,-4.6445,-4.6511,-4.6457,-4.6548,-4.649,-4.6435,-4.6488,-4.6512,-4.6509,-4.6498,-4.6504,-4.6505,-4.6506,-4.6506,-4.6507,-4.6508,-4.6591,-4.6589,-4.6673,-4.6701,-4.673,-4.6761,-4.6735,-4.6762,-4.6776,-4.6727,-4.6727,-4.6646,-4.6328,-4.6249,-4.6522,-4.6519,-4.6517,-4.6516,-4.6515,-4.6957,-4.6865,-4.6995,-4.7024,-4.7052,-4.7121,-4.7047,-4.7107,-4.712,-4.7166,-4.7075,-4.685,-4.6805,-4.6777,-4.6711,-4.7087,-4.7087,-4.7087,-4.7087,-4.7171,-4.7143,-4.7262,-4.7313,-4.7357,-4.7303,-4.745,-4.7432,-4.7398,-4.7403,-4.734,-4.7248,-4.7222,-4.7193,-4.7156,-4.7093,-4.7558,-4.7558,-4.7559,-4.7392,-4.7366,-4.7503,-4.747,-4.7488,-4.7504,-4.764,-4.7702,-4.7645,-4.7576,-4.7405,-4.7385,-4.7236,-4.719,-4.7117,-4.7061,-4.6944,0,0]},{"header":{"parameterUnit":"m.s-1","parameterCategory":1,"la1":30.2992,"la2":30.254,"lo1":-89.0895,"lo2":-89.0443,"dy":0.0025,"dx":0.0025,"nx":19,"ny":19,"refTime":"2026-04-21T09:00:00:Z","depth":0,"parameterNumber":3,"parameterNumberName":"V-component_of_WINDS"},"data":[0,0,0,0.9455,0.9453,0.9309,0.9308,0.9175,0.9174,0,0,0,0,0,0,0,0,0,0,0,0.9528,0.9528,0.9455,0.9453,0.9309,0.9308,0.9175,0.9174,0,0,0,0,0,0,0,0,0,0,0,0.9528,0.9528,0.9528,0.9452,0.9309,0.9308,0.9175,0.9266,0,0,0,0,0,0,0,0,0,0,0.9397,0.9493,0.9528,0.9528,0.9451,0.9309,0.9308,0.9269,0.926,0.9262,0,0.9271,0,0.9221,0.9168,0.9168,0,0,0,0.943,0.9501,0.9435,0.9528,0.945,0.9309,0.9367,0.9263,0.9253,0.925,0.9268,0.9262,0.9218,0.9168,0.9167,0.9253,0.9255,0,0,0.9438,0.9518,0.9443,0.943,0.9455,0.9372,0.9363,0.9256,0.9282,0.9268,0.9258,0.9216,0.9167,0.9166,0.9252,0.9254,0,0,0,0.9476,0.9525,0.946,0.9437,0.9407,0.9368,0.9358,0.9286,0.9259,0.9256,0.9215,0.9167,0.9166,0.925,0.9253,0.9405,0,0,0,0.948,0.9547,0.9465,0.9513,0.941,0.9345,0.9392,0.9266,0.9251,0.9215,0.9167,0.9165,0.9248,0.9251,0.9397,0.9465,0,0,0,0.9527,0.9552,0.9541,0.9517,0.9458,0.9344,0.931,0.9261,0.9228,0.9168,0.9165,0.9247,0.9251,0.939,0.9453,0.9513,0,0,0,0.9601,0.9677,0.9545,0.9615,0.946,0.944,0.931,0.929,0.9257,0.9166,0.9249,0.9252,0.9388,0.9445,0.9507,0.9581,0.9619,0,0,0.9742,0.9697,0.9731,0.9609,0.9634,0.9455,0.9501,0.9394,0.9314,0.9278,0.9279,0.94,0.9452,0.9512,0.9798,0.9829,0,0,0,0.9804,0.983,0.9819,0.9792,0.9713,0.9651,0.9528,0.9489,0.9455,0.9312,0.9434,0.9462,0.9494,0.9526,0.9553,0.9576,0.927,0.9269,0.9269,1.0121,1.0015,1.0067,0.9946,0.9921,0.9795,0.9766,0.9692,0.9591,0.9622,0.9612,0.9798,0.9839,0.9858,0.9884,0.964,0.9641,0.9641,0.9641,1.0321,1.0343,1.0209,1.0212,1.0101,1.0102,0.9984,0.9914,0.99,0.9796,0.9819,0.9719,0.9895,0.9912,0.9652,0.965,0.9649,0.9648,0.9647,1.0519,1.0512,1.0463,1.0415,1.039,1.0263,1.0257,1.0155,1.0058,1.0081,1.0061,1.0059,1.0046,1.0078,1.0079,1.008,1.008,1.0081,1.0081,1.0745,1.0685,1.0692,1.0617,1.0588,1.0536,1.0412,1.038,1.032,1.0246,1.0245,1.0146,0.993,0.9881,1.0091,1.0089,1.0088,1.0087,1.0086,1.0993,1.0921,1.0933,1.0904,1.0808,1.0792,1.0661,1.0607,1.0566,1.0567,1.0461,1.0318,1.0264,1.0243,1.0201,1.0481,1.0481,1.0481,1.0481,1.1163,1.1125,1.1116,1.1077,1.1027,1.0911,1.093,1.0836,1.0726,1.0695,1.0639,1.0574,1.0556,1.0513,1.0486,1.0445,1.0781,1.0782,1.0782,1.1311,1.1264,1.13,1.1192,1.111,1.1043,1.1059,1.1021,1.0881,1.0792,1.0669,1.0656,1.055,1.052,1.0431,1.0391,1.0315,0,0]}]]